Location: Lamy Ridge Observatory
(35.5010°N, 105.8759°W)
Time: 09:31:42
(UTC-06:00)

ACS3 Solar Sail - Visible Passes

Search period start: 08 September 2024 00:00
Search period end: 18 September 2024 00:00
Orbit: 981 x 1029 km, 97.4° (Epoch: 07 September)

Date Brightness Start Highest point End Pass type
(mag) Time Alt. Az. Time Alt. Az. Time Alt. Az.
08 Sep 3.3 20:06:20 12° E 20:09:45 19° ENE 20:13:56 10° NNE visible
08 Sep 2.1 21:51:38 50° SSW 21:53:09 65° W 21:59:31 10° NNW visible
09 Sep 2.5 20:40:24 26° ESE 20:42:56 35° ENE 20:48:36 10° N visible
09 Sep 3.2 22:25:42 31° WSW 22:26:52 33° W 22:32:34 10° NNW visible
10 Sep 1.8 21:14:23 47° SE 21:16:13 67° ENE 21:22:32 10° N visible
10 Sep 4.0 22:59:40 16° W 23:00:41 17° W 23:04:34 10° NW visible
11 Sep 3.3 20:03:00 13° E 20:06:13 18° ENE 20:10:20 10° NNE visible
11 Sep 2.1 21:48:17 53° SSW 21:49:35 66° W 21:55:57 10° NNW visible
12 Sep 2.5 20:36:49 26° ESE 20:39:08 34° ENE 20:44:47 10° N visible
12 Sep 3.1 22:22:05 32° WSW 22:23:03 34° W 22:28:45 10° NNW visible
13 Sep 1.8 21:10:32 49° SE 21:12:10 65° ENE 21:18:28 10° N visible
13 Sep 4.0 22:55:48 17° W 22:56:35 17° W 23:00:34 10° NW visible
14 Sep 3.3 19:58:55 13° E 20:01:56 18° ENE 20:05:56 10° NNE visible
14 Sep 2.0 21:44:11 58° SSW 21:45:16 68° W 21:51:38 10° NNW visible
15 Sep 2.6 20:32:29 27° ESE 20:34:36 33° ENE 20:40:09 10° N visible
15 Sep 3.1 22:17:44 34° WSW 22:18:27 35° W 22:24:13 10° NNW visible
16 Sep 1.8 21:05:57 50° SE 21:07:21 62° ENE 21:13:37 10° N visible
16 Sep 4.0 22:51:11 18° W 22:51:43 18° W 22:55:52 10° NW visible
17 Sep 3.3 19:54:05 13° E 19:56:55 17° ENE 20:00:43 10° NNE visible
17 Sep 2.0 21:39:19 63° SSW 21:40:12 71° W 21:46:33 10° NNW visible
